Theta_e
303 306 312 312 316 317 312 312 335 335 333 333 332 332 331 331 331 330 330 329 329 328
298 302 308 309 308 313 309 311 315 332 332 333 332 331 331 330 330 330 329 329 329 328
295 297 299 300 300 305 310 309 305 307 316 324 327 331 330 329 329 329 329 329 328 327
293 293 294 294 295 297 300 300 299 301 301 302 303 307 312 318 324 328 328 328 327 327
291 291 290 290 292 293 294 295 294 294 295 295 298 300 303 305 308 311 311 318 324 325
289 289 289 287 288 289 290 290 290 291 291 291 292 295 299 300 300 301 301 301 305 303
287 289 288 288 287 286 287 286 287 287 288 289 289 291 293 293 294 295 295 295 297 295
288 288 288 287 287 287 286 286 286 286 286 287 288 288 289 290 289 289 289 290 291 292
287 287 286 286 285 285 285 285 285 285 285 285 286 288 288 287 286 286 286 285 287 289
286 286 286 286 286 285 284 284 284 283 283 284 285 287 288 287 286 285 284 284 284 285
284 284 285 285 285 285 285 283 283 282 282 282 284 286 286 286 285 284 284 284 284 284
283 282 282 282 283 283 284 284 283 282 281 280 281 285 285 284 284 283 283 283 284 284
283 281 279 279 280 281 281 281 281 281 279 280 279 283 284 283 282 282 282 283 284 285
282 281 279 278 278 278 278 277 277 277 277 276 277 278 282 283 280 281 282 282 282 283
Wind_Speed
11 8 9 7 6 6 3 9 23 21 19 18 16 14 12 8 9 9 8 10 8 7
10 9 4 2 2 4 7 12 24 19 14 14 14 13 12 8 8 9 9 9 9 8
10 8 10 8 13 13 6 9 21 13 11 6 7 11 12 8 8 9 8 7 9 9
9 13 13 14 16 17 13 16 18 10 17 17 14 10 10 6 1 12 11 9 9 10
10 17 18 19 20 19 14 14 20 16 18 20 11 13 11 9 9 8 13 10 4 6
16 23 23 20 20 21 18 17 21 19 18 18 15 19 15 12 13 13 12 12 10 11
20 20 20 20 20 26 16 19 18 17 16 16 16 17 15 16 15 13 13 13 13 13
18 18 19 25 24 19 19 18 16 17 18 20 19 15 16 14 13 13 13 15 14 13
20 20 21 17 23 24 19 20 18 20 20 21 15 22 23 18 15 16 14 14 14 12
18 18 19 22 23 19 18 14 15 17 20 20 18 28 25 21 13 12 14 15 14 13
17 20 20 19 19 19 15 18 17 20 20 18 20 29 27 22 15 13 14 13 14 13
17 18 18 19 19 17 14 14 16 16 18 17 18 30 28 18 12 13 12 11 13 13
12 15 18 17 15 12 13 14 12 13 15 22 16 28 29 20 9 10 9 9 10 20
12 14 14 14 14 14 13 12 12 11 13 15 18 18 28 27 11 10 8 8 8 8
Wind_Direction
307 280 248 253 274 189 44 345 222 185 182 181 176 170 172 184 186 188 196 204 190 203
332 333 325 296 250 197 78 0 333 159 169 164 163 160 163 177 182 183 192 204 206 200
359 3 34 28 39 18 74 46 31 47 50 94 127 166 165 180 178 181 196 203 211 215
358 44 43 43 42 40 29 72 60 29 61 38 39 41 60 37 145 193 196 208 210 219
26 57 50 42 43 48 31 59 78 25 57 58 357 50 50 52 32 44 42 12 277 248
43 50 50 42 44 48 38 35 53 52 44 59 12 41 43 40 43 41 40 43 35 21
34 50 58 52 44 47 40 35 45 48 51 45 42 40 42 47 43 39 41 37 43 36
31 37 46 55 49 47 40 50 35 46 45 46 40 35 32 46 50 45 42 39 34 36
29 34 42 49 57 48 38 39 41 42 47 46 40 35 42 46 44 41 38 37 29 27
32 35 42 42 51 52 48 47 45 49 47 47 44 34 35 41 48 46 39 35 28 22
29 36 36 41 44 41 39 39 34 40 40 36 34 34 33 34 38 37 38 33 31 27
30 37 37 35 36 34 27 38 40 39 38 35 32 31 32 27 33 34 33 34 31 34
42 48 39 34 36 36 36 37 34 43 39 34 31 27 30 27 19 21 19 18 24 29
47 53 46 37 29 24 28 27 29 31 34 30 21 21 22 22 13 14 2 7 12 12